| time (UTC) | temp F | wind direction | speed MPH | gust MPH | rain 1hr in | rain 24hr in | rain mn in | humidity % | barometer mb |
| 20260507060613 | 46 | 85 | 5.0 | 5.0 | 0.00 | 0.39 | 0.00 | 83 | 10.2 |
| 20260507050614 | 46 | 150 | 8.0 | 8.0 | 0.00 | 0.39 | 0.00 | 84 | 10.2 |
| 20260507040656 | 46 | 110 | 1.0 | 1.0 | 0.00 | 0.39 | 0.00 | 84 | 9.1 |
| 20260507030614 | 46 | 110 | 3.0 | 3.0 | 0.00 | 0.39 | 0.00 | 83 | 9.1 |
| 20260507020613 | 46 | 75 | 5.0 | 5.0 | 0.00 | 0.39 | 0.00 | 82 | 8.1 |
| 20260507010657 | 46 | 85 | 3.0 | 4.0 | 0.00 | 0.39 | 0.00 | 83 | 8.1 |
| 20260507000613 | 46 | 105 | 3.0 | 3.0 | 0.00 | 0.39 | 0.00 | 83 | 8.1 |
| 20260506230614 | 47 | 100 | 3.0 | 3.0 | 0.00 | 0.39 | 0.00 | 83 | 8.1 |
| 20260506190653 | 50 | 135 | 2.0 | 3.0 | 0.00 | 0.44 | 0.39 | 83 | 5.7 |
| 20260506181214 | 51 | 135 | 6.0 | 6.0 | 0.00 | 0.44 | 0.39 | 82 | 3.6 |
| 20260506170613 | 51 | 55 | 1.0 | 4.0 | 0.00 | 0.44 | 0.39 | 82 | 4.6 |
| 20260506160654 | 52 | 65 | 5.0 | 5.0 | 0.00 | 0.44 | 0.39 | 84 | 4.5 |
| 20260506150611 | 54 | 50 | 7.0 | 7.0 | 0.00 | 0.44 | 0.39 | 81 | 3.3 |
| 20260506140610 | 54 | 95 | 6.0 | 6.0 | 0.09 | 0.46 | 0.39 | 83 | 3.3 |
| 20260506130657 | 54 | 275 | 3.0 | 7.0 | 0.29 | 0.39 | 0.30 | 83 | 2.2 |
| 20260506120611 | 56 | 265 | 5.0 | 5.0 | 0.01 | 0.14 | 0.01 | 79 | 2.1 |
| 20260506110612 | 57 | 25 | 6.0 | 9.0 | 0.00 | 0.16 | 0.00 | 76 | 2.0 |
| 20260506100658 | 55 | 305 | 11.0 | 11.0 | 0.00 | 0.16 | 0.00 | 80 | 2.2 |
| 20260506090613 | 56 | 240 | 8.0 | 9.0 | 0.00 | 0.16 | 0.00 | 77 | 2.1 |
| 20260506080611 | 54 | 70 | 5.0 | 8.0 | 0.00 | 0.16 | 0.00 | 81 | 2.3 |